sat.trackr.live / text

‹ back to catalog

SJ-11-01

NORAD 36088 · 2009-061A

PAYLOAD ACTIVE UNKNOWN

§ Identity

Operator
Country
PRC
Launch date
2009-11-12
Launch site
JSC
Launch vehicle
Mass (kg)
RCS (m²)
2.28

External: N2YO · Heavens-Above · Gunter

§ Orbital elements

Epoch: 2026-09-09T05:05:13.890912Z

Period
98.38 min
Inclination
98.0146°
Eccentricity
0.0012046
Mean motion
14.63755685 rev/d
Perigee alt
672.6 km
Apogee alt
689.6 km
Semi-major
7,059.2 km
B*
1.0669e-4
RAAN
230.8570°
Arg perigee
113.7593°
Mean anomaly
335.0603°
Rev number
89,678

§ Raw data

SJ-11-011 36088U 09061A   26252.21196633  .00000510  00000+0  10669-3 0  99992 36088  98.0146 230.8570 0012046 113.7593 335.0603 14.63755685896780

JSON: /api/v1/satellites/36088 · /tle

For live sub-satellite position, see the globe view (requires WebGL).

§ Visibility from observer

Set your observer location to see the next 7 days of passes ≥ 10°. The values pass through the URL so the page stays shareable.

No JS? Fill the form by hand. The geolocation button needs JavaScript.